Location: London
(51.5074°N, 0.1278°W)
Time: 23:29:34
(UTC+01:00)

DELFI C3 - Pass Details

Date: 08 October 2020
Orbit: 535 x 549 km, 97.4° (Epoch: 22 October)

Event Time Altitude Azimuth Distance (km) Brightness Sun altitude
Exits shadow 20:43:23 67° 194° (SSW) 599 ? -22.6°
Maximum altitude 20:43:50 79° 255° (WSW) 565 ? -22.7°
Drops below altitude 10° 20:47:49 10° 344° (NNW) 1,836 ? -23.3°
Sets 20:49:58 0° 346° (NNW) 2,736 ? -23.6°
